Time,TemperatureF,DewpointF,PressureIn,WindDirection,WindDirectionDegrees,WindSpeedMPH,WindSpeedGustMPH,Humidity,HourlyPrecipIn,Conditions,Clouds,dailyrainin,SoftwareType,DateUTC
2013-01-24 00:01:00,41.0,36.0,30.71,West,270,0.0,0.0,81,-99.99,,,-99.99,,2013-01-24 08:01:00,
2013-01-24 00:11:00,41.0,36.0,30.71,West,270,0.0,0.0,81,-99.99,,,-99.99,,2013-01-24 08:11:00,
2013-01-24 00:22:00,41.0,36.0,30.71,West,270,0.0,0.0,81,-99.99,,,-99.99,,2013-01-24 08:22:00,
2013-01-24 00:32:00,41.0,36.0,30.71,West,270,0.0,0.0,81,-99.99,,,-99.99,,2013-01-24 08:32:00,
2013-01-24 00:42:00,41.0,36.0,30.71,West,270,0.0,0.0,81,-99.99,,,-99.99,,2013-01-24 08:42:00,
2013-01-24 00:53:00,41.0,36.0,30.72,West,270,0.0,0.0,81,-99.99,,,-99.99,,2013-01-24 08:53:00,
2013-01-24 01:02:00,41.0,36.0,30.72,West,270,0.0,0.0,81,-99.99,,,-99.99,,2013-01-24 09:02:00,
2013-01-24 01:12:00,41.0,36.0,30.72,West,270,0.0,0.0,81,-99.99,,,-99.99,,2013-01-24 09:12:00,
2013-01-24 01:22:00,41.0,36.0,30.73,West,270,0.0,0.0,81,-99.99,,,-99.99,,2013-01-24 09:22:00,
2013-01-24 01:32:00,41.0,35.0,30.73,West,270,0.0,0.0,80,-99.99,,,-99.99,,2013-01-24 09:32:00,
2013-01-24 01:42:00,41.0,35.0,30.73,West,270,0.0,0.0,80,-99.99,,,-99.99,,2013-01-24 09:42:00,
2013-01-24 01:52:00,41.0,35.0,30.74,West,270,0.0,0.0,80,-99.99,,,-99.99,,2013-01-24 09:52:00,
2013-01-24 02:02:00,41.0,35.0,30.74,West,270,0.0,0.0,80,-99.99,,,-99.99,,2013-01-24 10:02:00,
2013-01-24 02:11:00,41.0,35.0,30.74,West,270,0.0,0.0,80,-99.99,,,-99.99,,2013-01-24 10:11:00,
2013-01-24 02:22:00,41.0,35.0,30.75,West,270,0.0,0.0,79,-99.99,,,-99.99,,2013-01-24 10:22:00,
2013-01-24 02:32:00,41.0,35.0,30.75,West,270,0.0,0.0,80,-99.99,,,-99.99,,2013-01-24 10:32:00,
2013-01-24 02:42:00,41.0,35.0,30.75,West,270,0.0,0.0,80,-99.99,,,-99.99,,2013-01-24 10:42:00,
2013-01-24 02:52:00,41.0,35.0,30.76,West,270,0.0,0.0,80,-99.99,,,-99.99,,2013-01-24 10:52:00,
2013-01-24 03:02:00,41.0,35.0,30.76,West,270,0.0,0.0,80,-99.99,,,-99.99,,2013-01-24 11:02:00,
2013-01-24 03:11:00,41.0,35.0,30.76,West,270,0.0,0.0,80,-99.99,,,-99.99,,2013-01-24 11:11:00,
2013-01-24 03:22:00,41.0,35.0,30.76,West,270,0.0,0.0,79,-99.99,,,-99.99,,2013-01-24 11:22:00,
2013-01-24 03:32:00,41.0,35.0,30.77,West,270,0.0,0.0,79,-99.99,,,-99.99,,2013-01-24 11:32:00,
2013-01-24 03:42:00,41.0,35.0,30.77,West,270,0.0,0.0,79,-99.99,,,-99.99,,2013-01-24 11:42:00,
2013-01-24 03:53:00,41.0,35.0,30.77,West,270,0.0,0.0,79,-99.99,,,-99.99,,2013-01-24 11:53:00,
2013-01-24 04:02:00,41.0,35.0,30.77,West,270,0.0,0.0,78,-99.99,,,-99.99,,2013-01-24 12:02:00,
2013-01-24 04:12:00,41.0,35.0,30.77,West,270,0.0,0.0,78,-99.99,,,-99.99,,2013-01-24 12:12:00,
2013-01-24 04:22:00,41.0,35.0,30.77,West,270,0.0,0.0,79,-99.99,,,-99.99,,2013-01-24 12:22:00,
2013-01-24 04:32:00,41.0,35.0,30.76,West,270,0.0,0.0,79,-99.99,,,-99.99,,2013-01-24 12:32:00,
2013-01-24 04:42:00,41.0,35.0,30.76,West,270,0.0,0.0,79,-99.99,,,-99.99,,2013-01-24 12:42:00,
2013-01-24 04:53:00,41.0,35.0,30.76,West,270,0.0,0.0,78,-99.99,,,-99.99,,2013-01-24 12:53:00,
2013-01-24 05:02:00,41.0,35.0,30.76,West,270,0.0,0.0,79,-99.99,,,-99.99,,2013-01-24 13:02:00,
2013-01-24 05:12:00,41.0,35.0,30.76,West,270,0.0,0.0,79,-99.99,,,-99.99,,2013-01-24 13:12:00,
2013-01-24 05:22:00,41.0,35.0,30.76,West,270,0.0,0.0,79,-99.99,,,-99.99,,2013-01-24 13:22:00,
2013-01-24 05:32:00,42.0,36.0,30.76,West,270,0.0,0.0,78,-99.99,,,-99.99,,2013-01-24 13:32:00,
2013-01-24 05:42:00,42.0,36.0,30.76,West,270,0.0,0.0,78,-99.99,,,-99.99,,2013-01-24 13:42:00,
2013-01-24 05:53:00,41.0,35.0,30.77,West,270,0.0,0.0,79,-99.99,,,-99.99,,2013-01-24 13:53:00,
2013-01-24 06:02:00,41.0,41.0,30.78,West,270,0.0,0.0,100,-99.99,,,-99.99,,2013-01-24 14:02:00,
2013-01-24 06:11:00,41.0,41.0,30.78,West,270,0.0,0.0,100,-99.99,,,-99.99,,2013-01-24 14:11:00,
2013-01-24 06:22:00,41.0,35.0,30.78,West,270,0.0,0.0,78,-99.99,,,-99.99,,2013-01-24 14:22:00,
2013-01-24 06:32:00,41.0,35.0,30.77,West,270,0.0,0.0,79,-99.99,,,-99.99,,2013-01-24 14:32:00,
2013-01-24 06:42:00,41.0,35.0,30.77,West,270,0.0,0.0,79,-99.99,,,-99.99,,2013-01-24 14:42:00,
2013-01-24 06:53:00,41.0,35.0,30.76,West,270,0.0,0.0,79,-99.99,,,-99.99,,2013-01-24 14:53:00,
2013-01-24 07:02:00,41.0,35.0,30.77,West,270,0.0,0.0,79,-99.99,,,-99.99,,2013-01-24 15:02:00,
2013-01-24 07:12:00,41.0,35.0,30.77,West,270,0.0,0.0,79,-99.99,,,-99.99,,2013-01-24 15:12:00,
2013-01-24 07:22:00,41.0,35.0,30.76,West,270,0.0,0.0,79,-99.99,,,-99.99,,2013-01-24 15:22:00,
2013-01-24 07:32:00,41.0,35.0,30.76,West,270,0.0,0.0,79,-99.99,,,-99.99,,2013-01-24 15:32:00,
2013-01-24 07:42:00,41.0,35.0,30.76,West,270,0.0,0.0,79,-99.99,,,-99.99,,2013-01-24 15:42:00,
2013-01-24 07:53:00,40.0,34.0,30.76,West,270,0.0,0.0,79,-99.99,,,-99.99,,2013-01-24 15:53:00,
2013-01-24 08:02:00,40.0,34.0,30.76,West,270,0.0,0.0,79,-99.99,,,-99.99,,2013-01-24 16:02:00,
2013-01-24 08:11:00,40.0,34.0,30.76,West,270,0.0,0.0,79,-99.99,,,-99.99,,2013-01-24 16:11:00,
2013-01-24 08:22:00,40.0,34.0,30.77,West,270,0.0,0.0,79,-99.99,,,-99.99,,2013-01-24 16:22:00,
2013-01-24 08:33:00,40.0,34.0,30.76,West,270,0.0,0.0,79,-99.99,,,-99.99,,2013-01-24 16:33:00,
2013-01-24 08:42:00,40.0,34.0,30.76,West,270,0.0,0.0,79,-99.99,,,-99.99,,2013-01-24 16:42:00,
2013-01-24 09:01:00,40.0,34.0,30.75,West,270,0.0,0.0,78,-99.99,,,-99.99,,2013-01-24 17:01:00,
2013-01-24 09:11:00,40.0,34.0,30.75,West,270,0.0,0.0,78,-99.99,,,-99.99,,2013-01-24 17:11:00,
2013-01-24 09:21:00,41.0,34.0,30.77,West,270,0.0,0.0,75,-99.99,,,-99.99,,2013-01-24 17:21:00,
2013-01-24 09:31:00,42.0,34.0,30.76,West,270,0.0,0.0,73,-99.99,,,-99.99,,2013-01-24 17:31:00,
2013-01-24 09:42:00,42.0,34.0,30.76,West,270,0.0,0.0,73,-99.99,,,-99.99,,2013-01-24 17:42:00,
2013-01-24 10:01:00,46.0,36.0,30.76,West,270,0.0,0.0,68,-99.99,,,-99.99,,2013-01-24 18:01:00,
2013-01-24 10:11:00,46.0,35.0,30.76,West,270,0.0,0.0,65,-99.99,,,-99.99,,2013-01-24 18:11:00,
2013-01-24 10:31:00,47.0,36.0,30.75,West,270,0.0,0.0,65,-99.99,,,-99.99,,2013-01-24 18:31:00,
2013-01-24 11:01:00,46.0,34.0,30.75,West,270,0.0,0.0,63,-99.99,,,-99.99,,2013-01-24 19:01:00,
2013-01-24 11:11:00,47.0,35.0,30.75,West,270,0.0,0.0,63,-99.99,,,-99.99,,2013-01-24 19:11:00,
2013-01-24 11:21:00,47.0,35.0,30.75,West,270,0.0,0.0,63,-99.99,,,-99.99,,2013-01-24 19:21:00,
2013-01-24 11:32:00,47.0,35.0,30.75,West,270,0.0,0.0,62,-99.99,,,-99.99,,2013-01-24 19:32:00,
2013-01-24 11:41:00,47.0,35.0,30.74,West,270,0.0,0.0,62,-99.99,,,-99.99,,2013-01-24 19:41:00,
2013-01-24 12:01:00,47.0,34.0,30.73,West,270,0.0,0.0,60,-99.99,,,-99.99,,2013-01-24 20:01:00,
2013-01-24 12:11:00,46.0,33.0,30.72,West,270,0.0,0.0,60,-99.99,,,-99.99,,2013-01-24 20:11:00,
2013-01-24 12:21:00,46.0,33.0,30.72,West,270,0.0,0.0,60,-99.99,,,-99.99,,2013-01-24 20:21:00,
2013-01-24 12:32:00,46.0,33.0,30.71,West,270,0.0,0.0,60,-99.99,,,-99.99,,2013-01-24 20:32:00,
2013-01-24 12:42:00,47.0,34.0,30.71,West,270,0.0,0.0,61,-99.99,,,-99.99,,2013-01-24 20:42:00,
2013-01-24 12:52:00,47.0,34.0,30.71,West,270,0.0,0.0,61,-99.99,,,-99.99,,2013-01-24 20:52:00,
2013-01-24 13:01:00,47.0,34.0,30.71,West,270,0.0,0.0,60,-99.99,,,-99.99,,2013-01-24 21:01:00,
2013-01-24 13:11:00,47.0,34.0,30.70,West,270,0.0,0.0,60,-99.99,,,-99.99,,2013-01-24 21:11:00,
2013-01-24 13:21:00,47.0,34.0,30.70,West,270,0.0,0.0,60,-99.99,,,-99.99,,2013-01-24 21:21:00,
2013-01-24 13:32:00,47.0,34.0,30.70,West,270,0.0,0.0,60,-99.99,,,-99.99,,2013-01-24 21:32:00,
2013-01-24 13:42:00,47.0,34.0,30.70,West,270,0.0,0.0,60,-99.99,,,-99.99,,2013-01-24 21:42:00,
2013-01-24 13:52:00,47.0,33.0,30.69,West,270,0.0,0.0,58,-99.99,,,-99.99,,2013-01-24 21:52:00,
2013-01-24 14:02:00,47.0,33.0,30.69,West,270,0.0,0.0,58,-99.99,,,-99.99,,2013-01-24 22:02:00,
2013-01-24 14:12:00,47.0,33.0,30.69,West,270,0.0,0.0,58,-99.99,,,-99.99,,2013-01-24 22:12:00,
2013-01-24 14:21:00,46.0,32.0,30.69,West,270,0.0,0.0,59,-99.99,,,-99.99,,2013-01-24 22:21:00,
2013-01-24 14:31:00,46.0,32.0,30.68,West,270,0.0,0.0,59,-99.99,,,-99.99,,2013-01-24 22:31:00,
2013-01-24 14:41:00,46.0,32.0,30.68,West,270,0.0,0.0,59,-99.99,,,-99.99,,2013-01-24 22:41:00,
2013-01-24 14:52:00,45.0,32.0,30.67,West,270,0.0,0.0,59,-99.99,,,-99.99,,2013-01-24 22:52:00,
2013-01-24 15:01:00,45.0,32.0,30.66,West,270,0.0,0.0,59,-99.99,,,-99.99,,2013-01-24 23:01:00,
2013-01-24 15:11:00,45.0,32.0,30.66,West,270,0.0,0.0,59,-99.99,,,-99.99,,2013-01-24 23:11:00,
2013-01-24 15:21:00,45.0,32.0,30.66,West,270,0.0,0.0,59,-99.99,,,-99.99,,2013-01-24 23:21:00,
2013-01-24 15:31:00,45.0,32.0,30.66,West,270,0.0,0.0,59,-99.99,,,-99.99,,2013-01-24 23:31:00,
2013-01-24 15:42:00,45.0,32.0,30.66,West,270,0.0,0.0,59,-99.99,,,-99.99,,2013-01-24 23:42:00,
2013-01-24 15:52:00,45.0,32.0,30.67,West,270,0.0,0.0,60,-99.99,,,-99.99,,2013-01-24 23:52:00,
2013-01-24 16:01:00,45.0,32.0,30.67,West,270,0.0,0.0,60,-99.99,,,-99.99,,2013-01-25 00:01:00,
2013-01-24 16:11:00,45.0,32.0,30.67,West,270,0.0,0.0,60,-99.99,,,-99.99,,2013-01-25 00:11:00,
2013-01-24 16:21:00,45.0,33.0,30.67,West,270,0.0,0.0,62,-99.99,,,-99.99,,2013-01-25 00:21:00,
2013-01-24 16:31:00,44.0,32.0,30.67,West,270,0.0,0.0,63,-99.99,,,-99.99,,2013-01-25 00:31:00,
2013-01-24 16:41:00,44.0,32.0,30.67,West,270,0.0,0.0,63,-99.99,,,-99.99,,2013-01-25 00:41:00,
2013-01-24 16:52:00,44.0,32.0,30.67,West,270,0.0,0.0,63,-99.99,,,-99.99,,2013-01-25 00:52:00,
2013-01-24 17:01:00,44.0,32.0,30.67,West,270,0.0,0.0,63,-99.99,,,-99.99,,2013-01-25 01:01:00,
2013-01-24 17:11:00,44.0,33.0,30.67,West,270,0.0,0.0,64,-99.99,,,-99.99,,2013-01-25 01:11:00,
2013-01-24 17:21:00,44.0,33.0,30.67,West,270,0.0,0.0,64,-99.99,,,-99.99,,2013-01-25 01:21:00,
2013-01-24 17:31:00,43.0,32.0,30.68,West,270,0.0,0.0,66,-99.99,,,-99.99,,2013-01-25 01:31:00,
2013-01-24 17:41:00,43.0,32.0,30.68,West,270,0.0,0.0,66,-99.99,,,-99.99,,2013-01-25 01:41:00,
2013-01-24 17:52:00,43.0,33.0,30.66,West,270,0.0,0.0,68,-99.99,,,-99.99,,2013-01-25 01:52:00,
2013-01-24 18:01:00,43.0,33.0,30.66,West,270,0.0,0.0,68,-99.99,,,-99.99,,2013-01-25 02:01:00,
2013-01-24 18:11:00,43.0,33.0,30.66,West,270,0.0,0.0,68,-99.99,,,-99.99,,2013-01-25 02:11:00,
2013-01-24 18:22:00,42.0,34.0,30.66,West,270,0.0,0.0,72,-99.99,,,-99.99,,2013-01-25 02:22:00,
2013-01-24 18:31:00,43.0,35.0,30.66,West,270,0.0,0.0,72,-99.99,,,-99.99,,2013-01-25 02:31:00,
2013-01-24 18:41:00,43.0,35.0,30.66,West,270,0.0,0.0,72,-99.99,,,-99.99,,2013-01-25 02:41:00,
2013-01-24 18:52:00,43.0,35.0,30.66,West,270,0.0,0.0,72,-99.99,,,-99.99,,2013-01-25 02:52:00,
2013-01-24 19:01:00,42.0,34.0,30.66,West,270,0.0,0.0,74,-99.99,,,-99.99,,2013-01-25 03:01:00,
2013-01-24 19:11:00,42.0,35.0,30.66,West,270,0.0,0.0,76,-99.99,,,-99.99,,2013-01-25 03:11:00,
2013-01-24 19:21:00,42.0,35.0,30.66,West,270,0.0,0.0,76,-99.99,,,-99.99,,2013-01-25 03:21:00,
2013-01-24 19:32:00,42.0,35.0,30.66,West,270,0.0,0.0,77,-99.99,,,-99.99,,2013-01-25 03:32:00,
2013-01-24 19:41:00,42.0,35.0,30.66,West,270,0.0,0.0,77,-99.99,,,-99.99,,2013-01-25 03:41:00,
2013-01-24 19:52:00,42.0,36.0,30.66,West,270,0.0,0.0,78,-99.99,,,-99.99,,2013-01-25 03:52:00,
2013-01-24 20:01:00,42.0,36.0,30.65,West,270,0.0,0.0,79,-99.99,,,-99.99,,2013-01-25 04:01:00,
2013-01-24 20:11:00,42.0,36.0,30.65,West,270,0.0,0.0,79,-99.99,,,-99.99,,2013-01-25 04:11:00,
2013-01-24 20:22:00,42.0,36.0,30.65,West,270,0.0,0.0,79,-99.99,,,-99.99,,2013-01-25 04:22:00,
2013-01-24 20:31:00,42.0,36.0,30.65,West,270,0.0,0.0,79,-99.99,,,-99.99,,2013-01-25 04:31:00,
2013-01-24 20:41:00,42.0,36.0,30.65,West,270,0.0,0.0,79,-99.99,,,-99.99,,2013-01-25 04:41:00,
2013-01-24 20:51:00,42.0,36.0,30.65,West,270,0.0,0.0,79,-99.99,,,-99.99,,2013-01-25 04:51:00,
2013-01-24 21:03:00,42.0,36.0,30.65,West,270,0.0,0.0,79,-99.99,,,-99.99,,2013-01-25 05:03:00,
2013-01-24 21:12:00,42.0,36.0,30.64,West,270,0.0,0.0,80,-99.99,,,-99.99,,2013-01-25 05:12:00,
2013-01-24 21:22:00,42.0,36.0,30.64,West,270,0.0,0.0,80,-99.99,,,-99.99,,2013-01-25 05:22:00,
2013-01-24 21:31:00,42.0,36.0,30.64,West,270,0.0,0.0,79,-99.99,,,-99.99,,2013-01-25 05:31:00,
2013-01-24 21:42:00,42.0,36.0,30.64,West,270,0.0,0.0,79,-99.99,,,-99.99,,2013-01-25 05:42:00,
2013-01-24 21:52:00,42.0,36.0,30.63,West,270,0.0,0.0,79,-99.99,,,-99.99,,2013-01-25 05:52:00,
2013-01-24 22:01:00,42.0,36.0,30.64,West,270,0.0,0.0,79,-99.99,,,-99.99,,2013-01-25 06:01:00,
2013-01-24 22:11:00,42.0,36.0,30.64,West,270,0.0,0.0,79,-99.99,,,-99.99,,2013-01-25 06:11:00,
2013-01-24 22:21:00,43.0,37.0,30.64,West,270,0.0,0.0,79,-99.99,,,-99.99,,2013-01-25 06:21:00,
2013-01-24 22:31:00,43.0,37.0,30.63,West,270,0.0,0.0,78,-99.99,,,-99.99,,2013-01-25 06:31:00,
2013-01-24 22:41:00,44.0,38.0,30.63,West,270,0.0,0.0,78,-99.99,,,-99.99,,2013-01-25 06:41:00,
2013-01-24 22:52:00,44.0,38.0,30.63,West,270,0.0,0.0,78,-99.99,,,-99.99,,2013-01-25 06:52:00,
2013-01-24 23:01:00,44.0,38.0,30.63,West,270,0.0,0.0,78,-99.99,,,-99.99,,2013-01-25 07:01:00,
2013-01-24 23:11:00,43.0,37.0,30.63,West,270,0.0,0.0,78,-99.99,,,-99.99,,2013-01-25 07:11:00,
2013-01-24 23:21:00,43.0,37.0,30.63,West,270,0.0,0.0,78,-99.99,,,-99.99,,2013-01-25 07:21:00,
2013-01-24 23:31:00,43.0,37.0,30.63,West,270,0.0,0.0,78,-99.99,,,-99.99,,2013-01-25 07:31:00,
2013-01-24 23:41:00,43.0,37.0,30.63,West,270,0.0,0.0,78,-99.99,,,-99.99,,2013-01-25 07:41:00,
2013-01-24 23:51:00,43.0,37.0,30.63,West,270,0.0,0.0,80,-99.99,,,-99.99,,2013-01-25 07:51:00,